Regional Weather Roundup
Issued by NWS

Home | Current Version | Previous Version | Text Only | Print | Product List | Glossary Off
Versions: 1 2 3 4 5 6 7 8 9 10 11 12 13 14 15 16 17 18 19 20 21 22 23 24 25 26 27 28 29 30 31 32 33 34 35 36 37 38 39 40 41 42 43 44 45 46 47 48 49 50

000
ASUS43 KIND 250859
RWRIN

WEATHER ROUNDUP FOR INDIANA
NATIONAL WEATHER SERVICE INDIANAPOLIS IN
500 AM EDT THU AUG 25 2016

NOTE: "FAIR" INDICATES FEW OR NO CLOUDS BELOW 12,000 FEET WITH NO
SIGNIFICANT WEATHER AND/OR OBSTRUCTIONS TO VISIBILITY.

* - STATION DOES NOT REPORT WEATHER SUCH AS PRECIPITATION OR FOG.

+ - STATION NOT QUALITY CONTROLLED BY THE NATIONAL WEATHER SERVICE.
    USE DATA WITH CAUTION...ESPECIALLY DEWPOINT AND RELATIVE
    HUMIDITY OBSERVATIONS.

INZ001>003-010>013-019-020-251000-
NORTHWEST INDIANA

CITY           SKY/WX    TMP DP  RH WIND       PRES   REMARKS
KNOX *+        CLOUDY    70  55  60 CALM      30.00F
MONTICELLO +   CLOUDY    72  68  88 NW7       30.01S
RENSSELAER +   TSTM      70  70 100 CALM      30.01F
VALPARAISO     TSTM      70  68  94 W14       30.03R

$$

LMZ046-743>745-251000-
SOUTHERN LAKE MICHIGAN

STATION/POSITION TIME  TEMP    WIND        PRES    WAVE
                       AIR SEA DIR/SP/G            HT
                 (UTC) (F)     (DEG/KT/KT) (MB)    (FT)
BURNS HARBOR     0812   73     180/  8/ 14 1015.2F
MICHIGAN CITY    0800   73     170/ 10/ 12   N/A
5NW MICH CITY    0800   74 74  190/  8/ 12   N/A     1

$$

INZ004-005-014>016-021>024-251000-
NORTH CENTRAL INDIANA

CITY           SKY/WX    TMP DP  RH WIND       PRES   REMARKS
GOSHEN         CLOUDY    71  67  87 SW6       30.01S
PERU/GRISSOM   PTCLDY    73  73 100 S6        30.01F
SOUTH BEND     LGT RAIN  71  70  96 S10       29.99F

$$

INZ006>009-017-018-025>027-251000-
NORTHEAST INDIANA

CITY           SKY/WX    TMP DP  RH WIND       PRES   REMARKS
ANGOLA *+      CLEAR     70  63  78 CALM      30.01S
FORT WAYNE     CLOUDY    69  67  93 SW5       30.03F

$$

INZ028-029-035-036-043>045-051>053-251000-
WEST CENTRAL INDIANA

CITY           SKY/WX    TMP DP  RH WIND       PRES   REMARKS
CRAWFORDSVL +  CLOUDY    74  74 100 SW6       30.04F
LAFAYETTE      MOCLDY    72  72 100 S3        30.01F
TERRE HAUTE    CLEAR     78  74  87 SW8       30.04S

$$

INZ030>032-037>040-046>048-054>057-064-065-251000-
CENTRAL INDIANA

CITY           SKY/WX    TMP DP  RH WIND       PRES   REMARKS
INDIANAPOLIS   CLOUDY    76  73  91 SW9       30.04S
-EAGLE CREEK   CLOUDY    76  73  91 CALM      30.04F
MT COMFORT *+  PTCLDY    72  72 100 S5        30.06F
SHELBYVILLE    CLEAR     75  72  90 S6        30.06S

$$

INZ033-034-041-042-049-050-058-059-251000-
EAST CENTRAL INDIANA

CITY           SKY/WX    TMP DP  RH WIND       PRES   REMARKS
MUNCIE         MOCLDY    73  70  90 SW6       30.06F

$$

INZ060-061-067>069-081>083-085>088-251000-
SOUTHWEST INDIANA

CITY           SKY/WX    TMP DP  RH WIND       PRES   REMARKS
EVANSVILLE     CLEAR     75  73  93 SW5       30.08S
HUNTINGBURG *+ CLEAR     75  72  88 S5        30.09S

$$

INZ062-063-066-070>080-084-089>092-251000-
SOUTH CENTRAL AND SOUTHEAST INDIANA

CITY           SKY/WX    TMP DP  RH WIND       PRES   REMARKS
BLOOMINGTON    CLEAR     77  73  87 SW7       30.07S
MADISON *+     CLEAR     75  72  88 SW5       30.11S

$$





USA.gov is the U.S. government's official web portal to all federal, state and local government web resources and services.